User: anonymous
Location: Pulvis Stellarum Observatory
(41.6962°N, 71.4263°W)
Time: 23:32:56
(UTC-04:00)
Language:

Cosmos 1758 - Orbit

View from above orbital plane
View from above orbital plane
View from above satellite
View from above satellite

Ground track
Ground track

The orbit data is extracted from the following two-line orbital elements,

1 16791U 86046A   14203.76872130  .00000945  00000-0  71364-4 0   851
2 16791 082.4737 343.4500 0019358 092.9056 267.4384 15.01122644526365
Epoch (UTC): 22 July 2014 18:26:57
Eccentricity: 0.0019358
inclination: 82.4737°
perigee height: 550 km
apogee height: 577 km
right ascension of ascending node: 343.4500°
argument of perigee: 92.9056°
revolutions per day: 15.01122644
mean anomaly at epoch: 267.4384°
orbit number at epoch: 52636

The dashed part of the orbit path shows where the satellite is in the earth's shadow,  

DLR